Location: ???????
(55.4362°N, 38.1183°E)
Time: 09:34:02
(UTC+00:00)

Cosmos 1300 - Visible Passes

Search period start: 28 October 2021 00:00
Search period end: 07 November 2021 00:00
Orbit: 509 x 513 km, 82.5° (Epoch: 27 October)

Date Brightness Start Highest point End Pass type
(mag) Time Alt. Az. Time Alt. Az. Time Alt. Az.
28 Oct 4.0 01:19:56 10° N 01:23:34 40° ENE 01:27:09 10° SE visible
28 Oct 3.7 02:55:54 10° NW 02:59:00 24° W 03:02:05 10° SW visible
28 Oct 2.6 15:16:19 10° S 15:20:07 85° E 15:23:58 10° NNE visible
28 Oct 5.8 16:54:15 10° W 16:56:21 14° WNW 16:58:25 10° NNW visible
29 Oct 4.5 01:08:01 28° ESE 01:08:01 28° ESE 01:10:27 10° SE visible
29 Oct 3.6 02:43:09 27° WSW 02:43:09 27° WSW 02:45:50 10° SSW visible
29 Oct 2.6 14:59:49 10° S 15:03:36 69° E 15:07:24 10° NNE visible
29 Oct 5.7 16:37:14 10° W 16:39:42 16° WNW 16:42:10 10° NNW visible
30 Oct 2.7 14:43:21 10° S 14:47:05 56° E 14:50:50 10° NNE visible
30 Oct 5.5 16:20:17 10° WSW 16:23:03 19° WNW 16:25:51 10° NNW visible
31 Oct 3.0 14:26:55 10° SSE 14:30:34 46° E 14:34:14 10° NNE visible
31 Oct 5.2 16:03:24 10° WSW 16:06:26 22° WNW 16:09:28 10° NNW visible
01 Nov 4.9 15:46:35 10° SW 15:49:48 26° WNW 15:53:04 10° N visible
02 Nov 4.6 15:29:48 10° SW 15:33:11 30° WNW 15:36:37 10° N visible
03 Nov 4.3 15:13:03 10° SW 15:16:35 36° WNW 15:20:10 10° N visible
04 Nov 3.9 14:56:22 10° SW 15:00:00 43° WNW 15:03:41 10° N visible
05 Nov 3.5 14:39:41 10° SSW 14:43:25 53° WNW 14:47:11 10° N visible
06 Nov 3.2 14:23:03 10° SSW 14:26:51 65° WNW 14:30:39 10° N visible
06 Nov 6.0 16:02:45 10° WNW 16:03:17 10° NW 16:03:50 10° NW visible
